This is the latest recevied weather packets stored in our database for station/object EA7RX-4. If no packets are shown the sender has not sent any weather packets the latest 10 day(s).
| Time | Temp. | Humidity | Pressure | Rain* | Wind** | Luminosity | Snow |
|---|---|---|---|---|---|---|---|
| 1787435403 | 25° C | 34% | 1015 hPa | 0 mm | - | 0 W/m² | - |
| 1787434803 | 25° C | 33% | 1014.9 hPa | 0 mm | - | 0 W/m² | - |
| 1787434203 | 25° C | 33% | 1014.5 hPa | 0 mm | - | 0 W/m² | - |
| 1787433603 | 25.56° C | 32% | 1014.6 hPa | 0 mm | - | 0 W/m² | - |
| 1787433003 | 25.56° C | 30% | 1014.9 hPa | 0 mm | - | 0 W/m² | - |
| 1787432403 | 25.56° C | 29% | 1014.5 hPa | 0 mm | - | 0 W/m² | - |
| 1787431803 | 25.56° C | 29% | 1014.4 hPa | 0 mm | - | 0 W/m² | - |
| 1787431203 | 25.56° C | 29% | 1014.5 hPa | 0 mm | - | 0 W/m² | - |
| 1787430603 | 25.56° C | 29% | 1014.4 hPa | 0 mm | - | 0 W/m² | - |
| 1787430003 | 25.56° C | 29% | 1014.3 hPa | 0 mm | - | 0 W/m² | - |
| 1787429403 | 26.11° C | 28% | 1014.2 hPa | 0 mm | - | 0 W/m² | - |
| 1787428803 | 26.67° C | 28% | 1014.1 hPa | 0 mm | - | 0 W/m² | - |
| 1787428203 | 26.11° C | 29% | 1014 hPa | 0 mm | - | 0 W/m² | - |
| 1787427603 | 26.67° C | 29% | 1014 hPa | 0 mm | - | 0 W/m² | - |
| 1787427003 | 27.22° C | 28% | 1013.8 hPa | 0 mm | - | 0 W/m² | - |
| 1787426403 | 27.22° C | 29% | 1013.8 hPa | 0 mm | - | 0 W/m² | - |
| 1787425803 | 27.78° C | 28% | 1013.4 hPa | 0 mm | - | 1 W/m² | - |
| 1787425203 | 27.78° C | 28% | 1013.2 hPa | 0 mm | - | 4 W/m² | - |
| 1787424603 | 28.33° C | 27% | 1013.7 hPa | 0 mm | - | 11 W/m² | - |
| 1787424003 | 28.33° C | 27% | 1013.3 hPa | 0 mm | - | 19 W/m² | - |
| 1787423403 | 28.89° C | 26% | 1013.6 hPa | 0 mm | - | 26 W/m² | - |
| 1787422803 | 29.44° C | 26% | 1013.4 hPa | 0 mm | - | 34 W/m² | - |
| 1787422203 | 29.44° C | 26% | 1013.6 hPa | 0 mm | - | 49 W/m² | - |
| 1787421603 | 29.44° C | 26% | 1013.6 hPa | 0 mm | - | 68 W/m² | - |
| 1787421003 | 29.44° C | 27% | 1013.7 hPa | 0 mm | - | 88 W/m² | - |
* Rain latest hour (hover to see other rain measurements)
** Current wind speed in m/s (hover to see current wind gust speed)